#timestamp,LO_Frequency,Hit,StdDev 
1507820415.6,286047000.8,N
1507820435.4,286047002.4,N
1507820455.2,286047001.0,N
1507820475.1,286047001.1,N
1507820476.0,286047001.1,N
1507820495.8,286046997.1,N
1507820515.6,286046995.1,N
1507820535.5,286046994.0,N
1507820555.3,286046997.3,N
1507820575.1,286047000.6,N
1507820595.9,286046999.2,N
1507820615.7,286047001.6,N
1507820635.5,286047000.6,N
1507820655.4,286046997.6,N
1507820675.2,286046999.3,N
1507820695.0,286046996.6,N
1507820695.9,286046996.6,N
1507820715.8,286046998.5,N
1507820735.6,286047002.6,N
1507820755.4,286047002.4,N
1507820775.3,286047000.5,N
1507820795.1,286046997.2,N
1507820796.0,286046997.2,N
1507820815.8,286046998.6,N
1507820835.7,286046996.2,N
1507820855.5,286046996.5,N
1507820875.3,286047001.2,N
1507820895.1,286046999.5,N
1507820915.9,286046996.8,N
1507820935.7,286047001.1,N
1507820955.5,286047000.9,N
1507820975.4,286046998.7,N
1507820995.2,286047001.0,N
1507821015.0,286047002.8,N
1507821015.9,286047002.8,N
1507821035.8,286047000.4,N
1507821055.6,286047002.4,N
1507821075.4,286047002.2,N
1507821095.3,286047000.1,N
1507821115.1,286047002.7,N
1507821116.0,286047002.7,N
1507821135.8,286046999.8,N
1507821155.7,286047003.9,N
1507821175.5,286047000.1,N
1507821195.3,286047004.3,N
1507821215.2,286047004.7,N
1507821235.9,286047008.3,Y
1507821255.7,286047007.0,P
1507821275.6,286047006.9,N
1507821295.4,286047003.2,N
1507821315.2,286047001.3,N
1507821335.1,286046999.7,N
1507821336.0,286046999.7,N
1507821355.8,286047003.7,N
1507821375.6,286047006.0,N
1507821395.5,286047005.2,N
1507821415.3,286047007.4,N
1507821435.1,286047005.9,N
1507821455.8,286047006.8,N
1507821475.7,286047008.4,N
1507821495.5,286047006.0,N
1507821515.3,286047001.7,N
1507821535.2,286047001.8,N
1507821555.9,286047002.6,N
1507821575.7,286047004.4,N
1507821595.6,286047004.1,N
1507821615.4,286047002.3,N
1507821635.2,286046999.8,N
1507821655.1,286047004.0,N
1507821656.0,286047004.0,N
1507821675.8,286047001.8,N
1507821695.6,286047000.2,N
1507821715.5,286047004.9,N
1507821735.3,286047006.5,N
1507821755.1,286047004.9,N
1507821775.8,286047003.7,N
1507821795.7,286046999.8,N
1507821815.5,286047002.4,N
1507821835.3,286047003.1,N
1507821855.2,286047002.9,N
1507821875.0,286047002.6,N
1507821875.9,286047002.6,N
1507821895.7,286047004.5,N
1507821915.6,286047006.9,Y
1507821935.4,286046999.5,P
1507821955.2,286046997.7,N
1507821975.1,286047001.0,N
1507821976.0,286047001.0,N
1507821995.8,286046998.6,N
1507822015.6,286046998.8,N
1507822035.5,286046998.6,N
1507822055.3,286047002.6,N
1507822075.1,286046999.6,N
1507822095.9,286046999.4,N
1507822115.7,286046997.7,N
1507822135.5,286046996.9,N
1507822155.4,286046997.2,N
1507822175.2,286046997.9,N
1507822195.0,286046994.2,Y
1507822195.9,286046994.2,P
1507822215.8,286046993.4,N
1507822235.6,286047000.9,N
1507822255.4,286047000.0,N
1507822275.2,286047000.8,N
1507822295.1,286047000.3,N
1507822296.0,286047000.3,N
1507822315.8,286046997.0,N
1507822335.6,286047000.9,N
1507822355.5,286047002.1,N
1507822375.3,286046996.5,N
1507822395.1,286046993.7,N
1507822415.9,286046993.9,N
1507822435.7,286046993.5,N
1507822455.5,286046993.5,N
1507822475.4,286046995.7,N
1507822495.2,286046997.6,N
1507822515.0,286046993.8,N
1507822515.9,286046993.8,N
1507822535.8,286046993.9,N
1507822555.6,286046995.7,N
1507822575.4,286046994.1,N
1507822595.3,286046992.7,N
1507822615.1,286046990.5,Y
1507822616.0,286046990.5,P
1507822635.8,286046997.8,N
1507822655.7,286046998.3,N
1507822675.5,286046997.7,N
1507822695.3,286046997.6,N
1507822715.1,286046996.5,N
1507822735.9,286047002.3,N
1507822755.7,286047001.4,N
1507822775.5,286046999.9,N
1507822795.4,286046995.9,N
1507822815.2,286046996.4,N
1507822835.0,286046993.3,N
1507822835.9,286046993.3,N
1507822855.8,286046998.8,N
1507822875.6,286046997.4,N
1507822895.4,286046998.2,N
1507822915.3,286046998.3,N
1507822935.1,286046998.4,N
1507822936.0,286046998.4,N
1507822955.8,286046997.7,N
1507822975.7,286046992.3,Y
1507822995.5,286046996.4,P
1507823015.3,286046995.7,P
1507823035.2,286046998.9,N
1507823055.9,286046995.0,Y
1507823075.7,286047004.3,P
1507823095.6,286047002.1,N
1507823115.4,286047002.5,N
1507823135.2,286047007.5,N
1507823155.1,286047010.6,Y
1507823156.0,286047010.6,P
1507823175.8,286047004.4,N
1507823195.6,286047003.0,N
1507823215.5,286047003.2,N
1507823235.3,286047004.3,N
1507823255.1,286047000.7,N
1507823275.9,286047001.7,N
1507823295.7,286047001.2,N
1507823315.5,286047002.1,N
1507823335.4,286046999.6,N
1507823355.2,286046998.0,N
1507823375.0,286046998.5,N
1507823375.9,286046998.5,N
1507823395.7,286046999.3,N
1507823415.6,286046996.6,N
1507823435.4,286046998.6,N
1507823455.2,286046998.2,N
1507823475.1,286047000.7,N
1507823476.0,286047000.7,N
1507823495.8,286046999.3,N
1507823515.6,286047000.8,N
1507823535.5,286046997.0,N
1507823555.3,286046997.5,N
1507823575.1,286047000.2,N
1507823595.9,286047002.5,N
1507823615.7,286047000.4,N
1507823635.5,286047001.9,N
1507823655.4,286046999.4,N
1507823675.2,286046997.9,N
1507823695.0,286046998.9,N
1507823695.9,286046998.9,N
1507823715.8,286046994.9,N
1507823735.6,286046999.1,N
1507823755.4,286046999.4,N
1507823775.3,286047000.9,N
1507823795.1,286047002.1,N
1507823796.0,286047002.1,N
1507823815.8,286047002.3,N
1507823835.7,286047006.0,Y
1507823855.5,286047005.0,P
1507823875.3,286047005.8,N
1507823895.1,286047003.7,N
1507823915.9,286047002.8,N
1507823935.7,286047002.2,N
1507823955.5,286047002.7,N
1507823975.4,286047000.0,N
1507823995.2,286047003.2,N
